Time,TemperatureF,DewpointF,PressureIn,WindDirection,WindDirectionDegrees,WindSpeedMPH,WindSpeedGustMPH,Humidity,HourlyPrecipIn,Conditions,Clouds,dailyrainin,SoftwareType,DateUTC
2013-04-27 00:01:00,38.1,15.4,29.35,WSW,255,0.0,0.0,39,0.00,,---,0.00,VWS V13.00,2013-04-27 08:01:00,
2013-04-27 00:06:00,38.1,15.4,29.35,NNE,30,0.0,0.0,39,0.00,,---,0.00,VWS V13.00,2013-04-27 08:06:00,
2013-04-27 00:11:00,37.9,15.8,29.35,NNE,30,0.0,0.0,40,0.00,,---,0.00,VWS V13.00,2013-04-27 08:11:00,
2013-04-27 00:16:00,37.6,15.5,29.35,NW,316,0.0,0.0,40,0.00,,---,0.00,VWS V13.00,2013-04-27 08:16:00,
2013-04-27 00:21:00,37.4,15.3,29.35,North,2,0.0,0.0,40,0.00,,---,0.00,VWS V13.00,2013-04-27 08:21:00,
2013-04-27 00:26:00,37.4,15.3,29.35,North,2,0.0,0.0,40,0.00,,---,0.00,VWS V13.00,2013-04-27 08:26:00,
2013-04-27 00:31:00,37.4,15.3,29.35,NNE,21,0.0,0.0,40,0.00,,---,0.00,VWS V13.00,2013-04-27 08:31:00,
2013-04-27 00:36:00,37.0,15.0,29.35,North,0,0.0,0.0,40,0.00,,---,0.00,VWS V13.00,2013-04-27 08:36:00,
2013-04-27 00:41:00,37.0,15.0,29.35,SSE,166,0.0,0.0,40,0.00,,---,0.00,VWS V13.00,2013-04-27 08:41:00,
2013-04-27 00:46:00,37.4,15.3,29.35,SSW,206,0.0,0.0,40,0.00,,---,0.00,VWS V13.00,2013-04-27 08:46:00,
2013-04-27 00:51:00,37.4,15.3,29.35,West,279,0.0,0.0,40,0.00,,---,0.00,VWS V13.00,2013-04-27 08:51:00,
2013-04-27 00:56:00,37.2,15.7,29.35,NE,41,0.0,0.0,41,0.00,,---,0.00,VWS V13.00,2013-04-27 08:56:00,
2013-04-27 01:01:00,37.2,15.7,29.35,SSW,207,0.0,0.0,41,0.00,,---,0.00,VWS V13.00,2013-04-27 09:01:00,
2013-04-27 01:06:00,37.2,15.7,29.35,NE,55,0.0,0.0,41,0.00,,---,0.00,VWS V13.00,2013-04-27 09:06:00,
2013-04-27 01:11:00,37.2,15.7,29.35,East,96,0.0,0.0,41,0.00,,---,0.00,VWS V13.00,2013-04-27 09:11:00,
2013-04-27 01:16:00,37.2,15.7,29.35,ENE,78,0.0,0.0,41,0.00,,---,0.00,VWS V13.00,2013-04-27 09:16:00,
2013-04-27 01:21:00,37.4,15.3,29.35,SSE,150,0.0,0.0,40,0.00,,---,0.00,VWS V13.00,2013-04-27 09:21:00,
2013-04-27 01:26:00,37.2,15.7,29.35,NNW,332,0.0,0.0,41,0.00,,---,0.00,VWS V13.00,2013-04-27 09:26:00,
2013-04-27 01:31:00,37.2,15.7,29.35,NNW,332,0.0,0.0,41,0.00,,---,0.00,VWS V13.00,2013-04-27 09:31:00,
2013-04-27 01:36:00,36.9,15.4,29.35,NW,304,0.0,0.0,41,0.00,,---,0.00,VWS V13.00,2013-04-27 09:36:00,
2013-04-27 01:41:00,36.9,15.4,29.35,NNW,343,0.0,0.0,41,0.00,,---,0.00,VWS V13.00,2013-04-27 09:41:00,
2013-04-27 01:46:00,36.9,15.4,29.35,NNW,343,0.0,0.0,41,0.00,,---,0.00,VWS V13.00,2013-04-27 09:46:00,
2013-04-27 01:51:00,36.9,15.4,29.35,NNW,333,0.0,0.0,41,0.00,,---,0.00,VWS V13.00,2013-04-27 09:51:00,
2013-04-27 01:56:00,37.2,15.7,29.35,NW,326,0.0,0.0,41,0.00,,---,0.00,VWS V13.00,2013-04-27 09:56:00,
2013-04-27 02:01:00,37.2,15.7,29.35,North,2,0.0,0.0,41,0.00,,---,0.00,VWS V13.00,2013-04-27 10:01:00,
2013-04-27 02:06:00,37.6,15.5,29.35,North,9,0.0,0.0,40,0.00,,---,0.00,VWS V13.00,2013-04-27 10:06:00,
2013-04-27 02:11:00,37.8,15.6,29.35,North,9,0.0,0.0,40,0.00,,---,0.00,VWS V13.00,2013-04-27 10:11:00,
2013-04-27 02:16:00,37.8,15.6,29.35,WSW,238,0.0,0.0,40,0.00,,---,0.00,VWS V13.00,2013-04-27 10:16:00,
2013-04-27 02:21:00,37.8,15.6,29.35,NW,322,0.0,0.0,40,0.00,,---,0.00,VWS V13.00,2013-04-27 10:21:00,
2013-04-27 02:26:00,37.8,15.6,29.35,SW,222,0.0,0.0,40,0.00,,---,0.00,VWS V13.00,2013-04-27 10:26:00,
2013-04-27 02:31:00,37.8,15.0,29.35,NW,315,0.0,0.0,39,0.00,,---,0.00,VWS V13.00,2013-04-27 10:31:00,
2013-04-27 02:36:00,37.8,15.0,29.35,NW,325,6.3,6.3,39,0.00,,---,0.00,VWS V13.00,2013-04-27 10:36:00,
2013-04-27 02:41:00,37.6,14.9,29.35,NE,44,0.0,5.4,39,0.00,,---,0.00,VWS V13.00,2013-04-27 10:41:00,
2013-04-27 02:46:00,37.6,14.9,29.35,NW,317,0.0,5.4,39,0.00,,---,0.00,VWS V13.00,2013-04-27 10:46:00,
2013-04-27 02:51:00,37.6,14.9,29.35,North,0,0.0,5.4,39,0.00,,---,0.00,VWS V13.00,2013-04-27 10:51:00,
2013-04-27 02:56:00,37.4,14.7,29.35,WSW,245,0.0,5.4,39,0.00,,---,0.00,VWS V13.00,2013-04-27 10:56:00,
2013-04-27 03:01:00,37.4,14.7,29.35,NW,306,0.0,0.0,39,0.00,,---,0.00,VWS V13.00,2013-04-27 11:01:00,
2013-04-27 03:06:00,37.0,15.0,29.35,SSW,212,0.0,0.0,40,0.00,,---,0.00,VWS V13.00,2013-04-27 11:06:00,
2013-04-27 03:11:00,37.0,15.0,29.35,WNW,294,0.0,0.0,40,0.00,,---,0.00,VWS V13.00,2013-04-27 11:11:00,
2013-04-27 03:16:00,37.0,15.0,29.35,SW,220,0.0,0.0,40,0.00,,---,0.00,VWS V13.00,2013-04-27 11:16:00,
2013-04-27 03:21:00,36.9,14.8,29.35,SW,221,0.0,0.0,40,0.00,,---,0.00,VWS V13.00,2013-04-27 11:21:00,
2013-04-27 03:26:00,36.9,14.8,29.35,NNW,343,0.0,0.0,40,0.00,,---,0.00,VWS V13.00,2013-04-27 11:26:00,
2013-04-27 03:31:00,36.5,14.5,29.35,NNW,343,0.0,0.0,40,0.00,,---,0.00,VWS V13.00,2013-04-27 11:31:00,
2013-04-27 03:36:00,36.5,14.5,29.35,SW,235,0.0,0.0,40,0.00,,---,0.00,VWS V13.00,2013-04-27 11:36:00,
2013-04-27 03:41:00,36.1,14.2,29.35,SSE,163,0.0,0.0,40,0.00,,---,0.00,VWS V13.00,2013-04-27 11:41:00,
2013-04-27 03:46:00,36.1,14.2,29.35,WNW,297,0.0,0.0,40,0.00,,---,0.00,VWS V13.00,2013-04-27 11:46:00,
2013-04-27 03:51:00,36.1,14.2,29.35,NNE,16,0.0,0.0,40,0.00,,---,0.00,VWS V13.00,2013-04-27 11:51:00,
2013-04-27 03:56:00,36.1,14.7,29.35,SSW,213,0.0,0.0,41,0.00,,---,0.00,VWS V13.00,2013-04-27 11:56:00,
2013-04-27 04:01:00,36.1,14.7,29.35,North,8,0.0,0.0,41,0.00,,---,0.00,VWS V13.00,2013-04-27 12:01:00,
2013-04-27 04:06:00,36.3,14.9,29.35,NNW,335,0.0,0.0,41,0.00,,---,0.00,VWS V13.00,2013-04-27 12:06:00,
2013-04-27 04:11:00,36.7,15.2,29.35,SE,138,0.0,0.0,41,0.00,,---,0.00,VWS V13.00,2013-04-27 12:11:00,
2013-04-27 04:16:00,36.5,15.1,29.35,NE,39,0.0,0.0,41,0.00,,---,0.00,VWS V13.00,2013-04-27 12:16:00,
2013-04-27 04:21:00,36.5,15.6,29.35,SSW,202,0.0,0.0,42,0.00,,---,0.00,VWS V13.00,2013-04-27 12:21:00,
2013-04-27 04:26:00,36.5,15.1,29.35,SSW,202,0.0,0.0,41,0.00,,---,0.00,VWS V13.00,2013-04-27 12:26:00,
2013-04-27 04:31:00,36.3,14.9,29.35,NNE,24,0.0,0.0,41,0.00,,---,0.00,VWS V13.00,2013-04-27 12:31:00,
2013-04-27 04:36:00,36.3,14.9,29.35,WNW,299,0.0,0.0,41,0.00,,---,0.00,VWS V13.00,2013-04-27 12:36:00,
2013-04-27 04:41:00,36.1,14.7,29.35,East,79,0.0,0.0,41,0.00,,---,0.00,VWS V13.00,2013-04-27 12:41:00,
2013-04-27 04:46:00,36.1,14.7,29.35,WNW,303,0.0,0.0,41,0.00,,---,0.00,VWS V13.00,2013-04-27 12:46:00,
2013-04-27 04:51:00,36.1,14.7,29.35,WNW,303,0.0,0.0,41,0.00,,---,0.00,VWS V13.00,2013-04-27 12:51:00,
2013-04-27 04:56:00,36.1,14.7,29.35,WSW,247,0.0,0.0,41,0.00,,---,0.00,VWS V13.00,2013-04-27 12:56:00,
2013-04-27 05:01:00,36.0,14.6,29.35,NW,320,0.0,0.0,41,0.00,,---,0.00,VWS V13.00,2013-04-27 13:01:00,
2013-04-27 05:05:00,36.1,15.3,29.38,SW,222,0.0,0.0,42,0.00,,---,0.00,VWS V13.00,2013-04-27 13:05:00,
2013-04-27 05:10:00,36.1,15.3,29.38,West,280,0.0,0.0,42,0.00,,---,0.00,VWS V13.00,2013-04-27 13:10:00,
2013-04-27 05:15:00,36.1,15.3,29.38,NW,310,0.0,0.0,42,0.00,,---,0.00,VWS V13.00,2013-04-27 13:15:00,
2013-04-27 05:20:00,36.1,15.3,29.38,West,279,0.0,0.0,42,0.00,,---,0.00,VWS V13.00,2013-04-27 13:20:00,
2013-04-27 05:25:00,36.0,15.1,29.38,West,272,0.0,0.0,42,0.00,,---,0.00,VWS V13.00,2013-04-27 13:25:00,
2013-04-27 05:30:00,36.0,15.1,29.38,WNW,288,0.0,0.0,42,0.00,,---,0.00,VWS V13.00,2013-04-27 13:30:00,
2013-04-27 05:35:00,36.0,15.1,29.38,NW,314,0.0,0.0,42,0.00,,---,0.00,VWS V13.00,2013-04-27 13:35:00,
2013-04-27 05:40:00,35.8,15.5,29.38,WSW,245,0.0,0.0,43,0.00,,---,0.00,VWS V13.00,2013-04-27 13:40:00,
2013-04-27 05:48:00,35.6,15.3,29.38,North,11,0.0,0.0,43,0.00,,---,0.00,VWS V13.00,2013-04-27 13:48:00,
2013-04-27 05:53:00,35.6,15.3,29.38,WSW,245,0.0,0.0,43,0.00,,---,0.00,VWS V13.00,2013-04-27 13:53:00,
2013-04-27 05:58:00,35.6,15.9,29.38,SSW,194,0.0,0.0,44,0.00,,---,0.00,VWS V13.00,2013-04-27 13:58:00,
2013-04-27 06:03:00,35.6,15.9,29.38,WSW,242,0.0,0.0,44,0.00,,---,0.00,VWS V13.00,2013-04-27 14:03:00,
2013-04-27 06:08:00,35.4,16.2,29.38,WSW,242,0.0,0.0,45,0.00,,---,0.00,VWS V13.00,2013-04-27 14:08:00,
2013-04-27 06:13:00,35.4,16.2,29.38,SSE,151,0.0,0.0,45,0.00,,---,0.00,VWS V13.00,2013-04-27 14:13:00,
2013-04-27 06:18:00,35.4,17.2,29.38,SSE,151,0.0,0.0,47,0.00,,---,0.00,VWS V13.00,2013-04-27 14:18:00,
2013-04-27 06:23:00,35.4,18.2,29.38,SSE,151,0.0,0.0,49,0.00,,---,0.00,VWS V13.00,2013-04-27 14:23:00,
2013-04-27 06:28:00,35.1,18.3,29.38,East,86,0.0,0.0,50,0.00,,---,0.00,VWS V13.00,2013-04-27 14:28:00,
2013-04-27 06:33:00,35.1,18.8,29.38,NE,55,4.0,4.0,51,0.00,,---,0.00,VWS V13.00,2013-04-27 14:33:00,
2013-04-27 06:38:00,34.9,18.6,29.38,ENE,61,2.7,4.0,51,0.00,,---,0.00,VWS V13.00,2013-04-27 14:38:00,
2013-04-27 06:43:00,34.9,18.6,29.38,ENE,61,2.7,2.7,51,0.00,,---,0.00,VWS V13.00,2013-04-27 14:43:00,
2013-04-27 06:48:00,34.9,18.1,29.38,ENE,61,2.7,2.7,50,0.00,,---,0.00,VWS V13.00,2013-04-27 14:48:00,
2013-04-27 06:53:00,35.1,18.3,29.38,NNE,17,2.2,2.7,50,0.00,,---,0.00,VWS V13.00,2013-04-27 14:53:00,
2013-04-27 06:58:00,34.9,18.1,29.38,SW,225,0.0,2.7,50,0.00,,---,0.00,VWS V13.00,2013-04-27 14:58:00,
2013-04-27 07:03:00,34.9,18.1,29.38,SW,225,0.0,0.0,50,0.00,,---,0.00,VWS V13.00,2013-04-27 15:03:00,
2013-04-27 07:08:00,34.9,18.1,29.38,ENE,74,0.0,2.2,50,0.00,,---,0.00,VWS V13.00,2013-04-27 15:08:00,
2013-04-27 07:13:00,34.9,18.1,29.38,ENE,74,0.0,2.2,50,0.00,,---,0.00,VWS V13.00,2013-04-27 15:13:00,
2013-04-27 07:18:00,34.9,18.6,29.38,West,269,0.0,2.2,51,0.00,,---,0.00,VWS V13.00,2013-04-27 15:18:00,
2013-04-27 07:23:00,34.9,18.6,29.38,WSW,257,0.0,0.0,51,0.00,,---,0.00,VWS V13.00,2013-04-27 15:23:00,
2013-04-27 07:28:00,34.7,18.9,29.38,WSW,257,0.0,0.0,52,0.00,,---,0.00,VWS V13.00,2013-04-27 15:28:00,
2013-04-27 07:33:00,34.7,19.3,29.38,NW,322,0.0,0.0,53,0.00,,---,0.00,VWS V13.00,2013-04-27 15:33:00,
2013-04-27 07:38:00,34.7,19.3,29.41,NW,322,0.0,0.0,53,0.00,,---,0.00,VWS V13.00,2013-04-27 15:38:00,
2013-04-27 07:43:00,34.7,19.8,29.41,NW,322,0.0,0.0,54,0.00,,---,0.00,VWS V13.00,2013-04-27 15:43:00,
2013-04-27 07:48:00,34.7,19.8,29.41,SE,143,0.0,0.0,54,0.00,,---,0.00,VWS V13.00,2013-04-27 15:48:00,
2013-04-27 07:53:00,34.7,19.8,29.41,SE,143,0.0,0.0,54,0.00,,---,0.00,VWS V13.00,2013-04-27 15:53:00,
2013-04-27 07:58:00,34.7,19.8,29.41,East,81,0.0,0.0,54,0.00,,---,0.00,VWS V13.00,2013-04-27 15:58:00,
2013-04-27 08:03:00,34.7,19.8,29.41,East,81,0.0,0.0,54,0.00,,---,0.00,VWS V13.00,2013-04-27 16:03:00,
2013-04-27 08:08:00,34.9,19.5,29.41,East,81,0.0,0.0,53,0.00,,---,0.00,VWS V13.00,2013-04-27 16:08:00,
2013-04-27 08:13:00,34.9,19.5,29.41,NE,44,0.0,5.4,53,0.00,,---,0.00,VWS V13.00,2013-04-27 16:13:00,
2013-04-27 08:18:00,34.9,19.5,29.41,NE,44,0.0,5.4,53,0.00,,---,0.00,VWS V13.00,2013-04-27 16:18:00,
2013-04-27 08:23:00,34.9,19.5,29.41,North,0,0.0,0.0,53,0.00,,---,0.00,VWS V13.00,2013-04-27 16:23:00,
2013-04-27 08:28:00,35.2,19.8,29.41,NW,324,0.0,0.0,53,0.00,,---,0.00,VWS V13.00,2013-04-27 16:28:00,
2013-04-27 08:33:00,35.2,19.8,29.44,NW,310,6.3,6.3,53,0.00,,---,0.00,VWS V13.00,2013-04-27 16:33:00,
2013-04-27 08:38:00,35.1,20.1,29.44,NE,35,0.0,6.3,54,0.00,,---,0.00,VWS V13.00,2013-04-27 16:38:00,
2013-04-27 08:43:00,34.9,20.4,29.44,NE,35,0.0,0.0,55,0.00,,---,0.00,VWS V13.00,2013-04-27 16:43:00,
2013-04-27 08:48:00,34.9,20.4,29.44,ENE,59,0.0,0.0,55,0.00,,---,0.00,VWS V13.00,2013-04-27 16:48:00,
2013-04-27 08:53:00,34.9,21.2,29.44,ENE,68,0.0,0.0,57,0.00,,---,0.00,VWS V13.00,2013-04-27 16:53:00,
2013-04-27 08:58:00,34.9,22.4,29.44,ENE,68,0.0,0.0,60,0.00,,---,0.00,VWS V13.00,2013-04-27 16:58:00,
2013-04-27 09:03:00,34.9,22.8,29.44,ENE,68,0.0,0.0,61,0.00,,---,0.00,VWS V13.00,2013-04-27 17:03:00,
2013-04-27 09:08:00,34.9,22.8,29.44,ENE,58,0.0,0.0,61,0.00,,---,0.00,VWS V13.00,2013-04-27 17:08:00,
2013-04-27 09:13:00,35.1,23.0,29.44,NNE,30,0.0,0.0,61,0.00,,---,0.00,VWS V13.00,2013-04-27 17:13:00,
2013-04-27 09:18:00,35.2,22.8,29.44,North,1,0.0,4.9,60,0.00,,---,0.00,VWS V13.00,2013-04-27 17:18:00,
2013-04-27 09:23:00,35.4,22.9,29.44,North,1,0.0,0.0,60,0.00,,---,0.00,VWS V13.00,2013-04-27 17:23:00,
2013-04-27 09:28:00,35.4,22.9,29.44,WNW,283,0.0,0.0,60,0.00,,---,0.00,VWS V13.00,2013-04-27 17:28:00,
2013-04-27 09:33:00,35.4,22.9,29.47,NNE,20,0.0,0.0,60,0.00,,---,0.00,VWS V13.00,2013-04-27 17:33:00,
2013-04-27 09:38:00,35.6,23.1,29.47,NNE,20,0.0,0.0,60,0.00,,---,0.00,VWS V13.00,2013-04-27 17:38:00,
2013-04-27 09:43:00,35.6,22.3,29.47,East,84,0.0,0.0,58,0.00,,---,0.00,VWS V13.00,2013-04-27 17:43:00,
2013-04-27 09:48:00,35.8,22.0,29.47,ENE,76,0.0,0.0,57,0.00,,---,0.00,VWS V13.00,2013-04-27 17:48:00,
2013-04-27 09:53:00,36.0,21.8,29.47,ENE,59,0.0,0.0,56,0.00,,---,0.00,VWS V13.00,2013-04-27 17:53:00,
2013-04-27 09:58:00,36.0,21.8,29.47,NW,311,6.7,6.7,56,0.00,,---,0.00,VWS V13.00,2013-04-27 17:58:00,
2013-04-27 10:03:00,36.3,21.7,29.47,NW,311,6.7,6.7,55,0.00,,---,0.00,VWS V13.00,2013-04-27 18:03:00,
2013-04-27 10:08:00,36.5,21.9,29.47,East,81,0.0,6.7,55,0.00,,---,0.00,VWS V13.00,2013-04-27 18:08:00,
2013-04-27 10:13:00,36.3,20.4,29.47,NNE,17,0.0,6.7,52,0.00,,---,0.00,VWS V13.00,2013-04-27 18:13:00,
2013-04-27 10:18:00,36.3,20.4,29.47,NW,325,0.0,6.7,52,0.00,,---,0.00,VWS V13.00,2013-04-27 18:18:00,
2013-04-27 10:23:00,36.9,20.9,29.47,NW,325,0.0,0.0,52,0.00,,---,0.00,VWS V13.00,2013-04-27 18:23:00,
2013-04-27 10:28:00,37.9,21.0,29.47,NW,310,0.0,0.0,50,0.00,,---,0.00,VWS V13.00,2013-04-27 18:28:00,
2013-04-27 10:33:00,38.1,21.1,29.47,NNE,21,0.0,0.0,50,0.00,,---,0.00,VWS V13.00,2013-04-27 18:33:00,
2013-04-27 10:38:00,38.7,21.6,29.47,NNW,330,0.0,0.0,50,0.00,,---,0.00,VWS V13.00,2013-04-27 18:38:00,
2013-04-27 10:43:00,38.7,21.6,29.47,NNE,16,0.0,0.0,50,0.00,,---,0.00,VWS V13.00,2013-04-27 18:43:00,
2013-04-27 10:48:00,39.2,20.2,29.47,NNE,16,0.0,0.0,46,0.00,,---,0.00,VWS V13.00,2013-04-27 18:48:00,
2013-04-27 10:53:00,39.2,20.2,29.47,North,3,0.0,0.0,46,0.00,,---,0.00,VWS V13.00,2013-04-27 18:53:00,
2013-04-27 10:58:00,40.3,19.6,29.47,NNW,327,10.5,10.5,43,0.00,,---,0.00,VWS V13.00,2013-04-27 18:58:00,
2013-04-27 11:03:00,41.0,19.7,29.47,NNW,327,10.5,10.5,42,0.00,,---,0.00,VWS V13.00,2013-04-27 19:03:00,
2013-04-27 11:08:00,40.8,19.5,29.47,SE,129,0.0,10.5,42,0.00,,---,0.00,VWS V13.00,2013-04-27 19:08:00,
2013-04-27 11:13:00,40.6,19.4,29.47,North,357,3.1,10.5,42,0.00,,---,0.00,VWS V13.00,2013-04-27 19:13:00,
2013-04-27 11:18:00,40.6,19.4,29.47,WNW,293,2.2,10.5,42,0.00,,---,0.00,VWS V13.00,2013-04-27 19:18:00,
2013-04-27 11:23:00,41.5,19.6,29.50,WNW,293,2.2,2.2,41,0.00,,---,0.00,VWS V13.00,2013-04-27 19:23:00,
2013-04-27 11:28:00,41.5,19.6,29.50,WNW,293,2.2,2.2,41,0.00,,---,0.00,VWS V13.00,2013-04-27 19:28:00,
2013-04-27 11:33:00,41.9,19.4,29.50,WNW,293,0.0,2.2,40,0.00,,---,0.00,VWS V13.00,2013-04-27 19:33:00,
2013-04-27 11:38:00,43.5,20.8,29.50,NNW,332,7.2,7.2,40,0.00,,---,0.00,VWS V13.00,2013-04-27 19:38:00,
2013-04-27 11:43:00,43.5,20.8,29.50,NNW,332,7.2,7.2,40,0.00,,---,0.00,VWS V13.00,2013-04-27 19:43:00,
2013-04-27 11:48:00,44.1,20.7,29.50,East,86,8.3,8.3,39,0.00,,---,0.00,VWS V13.00,2013-04-27 19:48:00,
2013-04-27 11:53:00,44.1,20.7,29.50,East,86,8.3,8.3,39,0.00,,---,0.00,VWS V13.00,2013-04-27 19:53:00,
2013-04-27 11:58:00,42.8,20.2,29.50,ESE,117,0.0,8.3,40,0.00,,---,0.00,VWS V13.00,2013-04-27 19:58:00,
2013-04-27 12:03:00,43.5,20.2,29.50,NNE,26,0.0,0.0,39,0.00,,---,0.00,VWS V13.00,2013-04-27 20:03:00,
2013-04-27 12:08:00,44.8,21.4,29.50,NNE,26,0.0,0.0,39,0.00,,---,0.00,VWS V13.00,2013-04-27 20:08:00,
2013-04-27 12:13:00,44.6,21.2,29.50,NNW,345,13.6,13.6,39,0.00,,---,0.00,VWS V13.00,2013-04-27 20:13:00,
2013-04-27 12:18:00,44.8,20.7,29.50,NNW,345,13.6,13.6,38,0.00,,---,0.00,VWS V13.00,2013-04-27 20:18:00,
2013-04-27 12:23:00,43.3,20.1,29.50,NNW,345,13.6,13.6,39,0.00,,---,0.00,VWS V13.00,2013-04-27 20:23:00,
2013-04-27 12:28:00,43.7,20.4,29.50,NNW,345,13.2,13.6,39,0.00,,---,0.00,VWS V13.00,2013-04-27 20:28:00,
2013-04-27 12:33:00,44.2,20.3,29.50,NNW,345,13.2,13.6,38,0.00,,---,0.00,VWS V13.00,2013-04-27 20:33:00,
2013-04-27 12:38:00,44.2,20.3,29.53,North,357,0.0,13.6,38,0.00,,---,0.00,VWS V13.00,2013-04-27 20:38:00,
2013-04-27 12:43:00,45.1,21.7,29.53,North,357,0.0,0.0,39,0.00,,---,0.00,VWS V13.00,2013-04-27 20:43:00,
2013-04-27 12:48:00,45.0,20.3,29.53,North,357,0.0,0.0,37,0.00,,---,0.00,VWS V13.00,2013-04-27 20:48:00,
2013-04-27 12:53:00,44.4,20.4,29.53,NNE,14,8.1,8.1,38,0.00,,---,0.00,VWS V13.00,2013-04-27 20:53:00,
2013-04-27 12:58:00,44.6,20.6,29.53,NNE,14,8.1,8.1,38,0.00,,---,0.00,VWS V13.00,2013-04-27 20:58:00,
2013-04-27 13:03:00,44.6,20.6,29.53,East,82,0.0,8.1,38,0.00,,---,0.00,VWS V13.00,2013-04-27 21:03:00,
2013-04-27 13:08:00,46.6,22.4,29.53,NW,307,0.0,8.1,38,0.00,,---,0.00,VWS V13.00,2013-04-27 21:08:00,
2013-04-27 13:13:00,46.6,22.4,29.53,NW,307,0.0,8.1,38,0.00,,---,0.00,VWS V13.00,2013-04-27 21:13:00,
2013-04-27 13:18:00,45.0,20.3,29.53,ENE,78,8.7,8.7,37,0.00,,---,0.00,VWS V13.00,2013-04-27 21:18:00,
2013-04-27 13:23:00,45.0,20.3,29.53,ENE,73,0.0,0.0,37,0.00,,---,0.00,VWS V13.00,2013-04-27 21:23:00,
2013-04-27 13:28:00,45.0,20.3,29.53,ENE,61,6.3,6.3,37,0.00,,---,0.00,VWS V13.00,2013-04-27 21:28:00,
2013-04-27 13:33:00,43.2,19.3,29.53,NE,47,4.9,6.3,38,0.00,,---,0.00,VWS V13.00,2013-04-27 21:33:00,
2013-04-27 13:38:00,43.2,19.3,29.53,ESE,110,3.1,6.3,38,0.00,,---,0.00,VWS V13.00,2013-04-27 21:38:00,
2013-04-27 13:43:00,45.1,21.1,29.53,ESE,110,3.1,3.1,38,0.00,,---,0.00,VWS V13.00,2013-04-27 21:43:00,
2013-04-27 13:48:00,45.1,21.1,29.53,WNW,303,0.0,3.1,38,0.00,,---,0.00,VWS V13.00,2013-04-27 21:48:00,
2013-04-27 13:53:00,46.0,18.6,29.53,ENE,76,0.0,3.1,33,0.00,,---,0.00,VWS V13.00,2013-04-27 21:53:00,
2013-04-27 13:58:00,44.4,18.5,29.53,NNW,345,0.0,3.1,35,0.00,,---,0.00,VWS V13.00,2013-04-27 21:58:00,
2013-04-27 14:03:00,44.4,18.5,29.53,NNW,345,0.0,0.0,35,0.00,,---,0.00,VWS V13.00,2013-04-27 22:03:00,
2013-04-27 14:08:00,45.0,17.6,29.53,NNW,338,3.1,3.1,33,0.00,,---,0.00,VWS V13.00,2013-04-27 22:08:00,
2013-04-27 14:13:00,45.0,17.6,29.53,North,357,0.0,3.1,33,0.00,,---,0.00,VWS V13.00,2013-04-27 22:13:00,
2013-04-27 14:18:00,46.0,19.3,29.53,North,357,0.0,3.1,34,0.00,,---,0.00,VWS V13.00,2013-04-27 22:18:00,
2013-04-27 14:23:00,45.1,17.1,29.56,North,350,3.6,3.6,32,0.00,,---,0.00,VWS V13.00,2013-04-27 22:23:00,
2013-04-27 14:28:00,45.1,17.1,29.56,NE,54,7.2,7.2,32,0.00,,---,0.00,VWS V13.00,2013-04-27 22:28:00,
2013-04-27 14:33:00,47.3,18.2,29.56,NNE,28,0.0,12.3,31,0.00,,---,0.00,VWS V13.00,2013-04-27 22:33:00,
2013-04-27 14:38:00,45.7,17.5,29.56,NNW,327,0.0,12.3,32,0.00,,---,0.00,VWS V13.00,2013-04-27 22:38:00,
2013-04-27 14:43:00,46.2,18.0,29.56,NNW,327,0.0,0.0,32,0.00,,---,0.00,VWS V13.00,2013-04-27 22:43:00,
2013-04-27 14:47:00,44.2,16.3,29.56,East,90,0.0,8.3,32,0.00,,---,0.00,VWS V13.00,2013-04-27 22:47:00,
2013-04-27 14:52:00,44.6,16.6,29.56,East,87,0.0,8.3,32,0.00,,---,0.00,VWS V13.00,2013-04-27 22:52:00,
2013-04-27 14:57:00,46.9,21.4,29.56,NE,36,10.1,10.1,36,0.00,,---,0.00,VWS V13.00,2013-04-27 22:57:00,
2013-04-27 15:02:00,46.0,17.9,29.56,SSW,197,0.0,0.0,32,0.00,,---,0.00,VWS V13.00,2013-04-27 23:02:00,
2013-04-27 15:07:00,47.8,20.1,29.56,NNE,23,10.5,10.5,33,0.00,,---,0.00,VWS V13.00,2013-04-27 23:07:00,
2013-04-27 15:12:00,45.1,16.3,29.56,ENE,69,0.0,10.5,31,0.00,,---,0.00,VWS V13.00,2013-04-27 23:12:00,
2013-04-27 15:17:00,44.1,16.1,29.56,North,11,0.0,10.5,32,0.00,,---,0.00,VWS V13.00,2013-04-27 23:17:00,
2013-04-27 15:22:00,44.1,16.1,29.59,South,187,0.0,0.0,32,0.00,,---,0.00,VWS V13.00,2013-04-27 23:22:00,
2013-04-27 15:27:00,46.0,19.9,29.59,NE,41,0.0,0.0,35,0.00,,---,0.00,VWS V13.00,2013-04-27 23:27:00,
2013-04-27 15:32:00,46.0,19.9,29.59,West,270,0.0,0.0,35,0.00,,---,0.00,VWS V13.00,2013-04-27 23:32:00,
2013-04-27 15:37:00,48.2,19.0,29.59,ENE,71,0.0,0.0,31,0.00,,---,0.00,VWS V13.00,2013-04-27 23:37:00,
2013-04-27 15:42:00,46.0,17.1,29.59,ENE,65,0.0,0.0,31,0.00,,---,0.00,VWS V13.00,2013-04-27 23:42:00,
2013-04-27 15:47:00,46.0,17.1,29.59,ENE,61,0.0,0.0,31,0.00,,---,0.00,VWS V13.00,2013-04-27 23:47:00,
2013-04-27 15:52:00,46.4,17.4,29.59,ENE,68,0.0,0.0,31,0.00,,---,0.00,VWS V13.00,2013-04-27 23:52:00,
2013-04-27 15:57:00,46.4,17.4,29.59,NW,321,6.7,6.7,31,0.00,,---,0.00,VWS V13.00,2013-04-27 23:57:00,
2013-04-27 16:02:00,48.2,20.5,29.59,WNW,288,0.0,6.7,33,0.00,,---,0.00,VWS V13.00,2013-04-28 00:02:00,
2013-04-27 16:07:00,48.6,19.3,29.59,East,83,0.0,6.7,31,0.00,,---,0.00,VWS V13.00,2013-04-28 00:07:00,
2013-04-27 16:12:00,46.6,17.6,29.59,NNE,25,6.3,6.7,31,0.00,,---,0.00,VWS V13.00,2013-04-28 00:12:00,
2013-04-27 16:17:00,46.2,17.3,29.59,North,2,0.0,6.7,31,0.00,,---,0.00,VWS V13.00,2013-04-28 00:17:00,
2013-04-27 16:22:00,46.2,17.3,29.59,NW,313,0.0,0.0,31,0.00,,---,0.00,VWS V13.00,2013-04-28 00:22:00,
2013-04-27 16:27:00,45.1,16.3,29.59,NNW,328,3.6,10.5,31,0.00,,---,0.00,VWS V13.00,2013-04-28 00:27:00,
2013-04-27 16:32:00,45.1,16.3,29.59,WNW,296,0.0,10.5,31,0.00,,---,0.00,VWS V13.00,2013-04-28 00:32:00,
2013-04-27 16:37:00,46.6,17.6,29.62,NW,312,3.6,10.5,31,0.00,,---,0.00,VWS V13.00,2013-04-28 00:37:00,
2013-04-27 16:42:00,46.6,19.7,29.62,SE,139,0.0,0.0,34,0.00,,---,0.00,VWS V13.00,2013-04-28 00:42:00,
2013-04-27 16:47:00,46.6,19.7,29.62,North,349,5.4,5.4,34,0.00,,---,0.00,VWS V13.00,2013-04-28 00:47:00,
2013-04-27 16:52:00,46.4,17.4,29.62,NNW,334,10.1,10.1,31,0.00,,---,0.00,VWS V13.00,2013-04-28 00:52:00,
2013-04-27 16:57:00,46.2,18.0,29.62,NNW,334,10.1,10.1,32,0.00,,---,0.00,VWS V13.00,2013-04-28 00:57:00,
2013-04-27 17:02:00,45.0,16.2,29.62,North,6,5.4,5.4,31,0.00,,---,0.00,VWS V13.00,2013-04-28 01:02:00,
2013-04-27 17:07:00,44.2,15.5,29.62,North,3,0.0,5.8,31,0.00,,---,0.00,VWS V13.00,2013-04-28 01:07:00,
2013-04-27 17:12:00,43.9,15.9,29.62,ENE,72,8.1,8.1,32,0.00,,---,0.00,VWS V13.00,2013-04-28 01:12:00,
2013-04-27 17:17:00,43.7,15.1,29.62,ENE,60,2.2,8.1,31,0.00,,---,0.00,VWS V13.00,2013-04-28 01:17:00,
2013-04-27 17:22:00,44.1,15.4,29.62,ENE,60,2.2,2.2,31,0.00,,---,0.00,VWS V13.00,2013-04-28 01:22:00,
2013-04-27 17:27:00,44.1,15.4,29.62,North,357,0.0,2.2,31,0.00,,---,0.00,VWS V13.00,2013-04-28 01:27:00,
2013-04-27 17:32:00,45.5,16.6,29.62,NW,304,0.0,2.2,31,0.00,,---,0.00,VWS V13.00,2013-04-28 01:32:00,
2013-04-27 17:37:00,44.8,16.0,29.62,NE,37,0.0,2.2,31,0.00,,---,0.00,VWS V13.00,2013-04-28 01:37:00,
2013-04-27 17:42:00,44.8,16.0,29.62,NW,317,8.1,8.1,31,0.00,,---,0.00,VWS V13.00,2013-04-28 01:42:00,
2013-04-27 17:47:00,45.1,17.1,29.62,North,357,11.9,11.9,32,0.00,,---,0.00,VWS V13.00,2013-04-28 01:47:00,
2013-04-27 17:52:00,45.1,17.1,29.62,NW,324,2.2,11.9,32,0.00,,---,0.00,VWS V13.00,2013-04-28 01:52:00,
2013-04-27 17:57:00,45.3,17.9,29.62,NE,51,0.0,11.9,33,0.00,,---,0.00,VWS V13.00,2013-04-28 01:57:00,
2013-04-27 18:03:00,45.5,17.4,29.62,WNW,297,0.0,0.0,32,0.00,,---,0.00,VWS V13.00,2013-04-28 02:03:00,
2013-04-27 18:22:00,43.5,15.6,29.65,NE,51,0.0,2.2,32,0.00,,---,0.00,VWS V13.00,2013-04-28 02:22:00,
2013-04-27 18:27:00,43.2,14.6,29.65,North,357,12.8,12.8,31,0.00,,---,0.00,VWS V13.00,2013-04-28 02:27:00,
2013-04-27 18:32:00,43.2,14.6,29.65,NW,326,10.5,12.8,31,0.00,,---,0.00,VWS V13.00,2013-04-28 02:32:00,
2013-04-27 18:37:00,42.4,14.7,29.65,SW,224,0.0,12.8,32,0.00,,---,0.00,VWS V13.00,2013-04-28 02:37:00,
2013-04-27 18:42:00,42.4,14.7,29.65,SW,224,0.0,0.0,32,0.00,,---,0.00,VWS V13.00,2013-04-28 02:42:00,
2013-04-27 18:47:00,41.5,13.9,29.65,North,353,12.3,12.3,32,0.00,,---,0.00,VWS V13.00,2013-04-28 02:47:00,
2013-04-27 18:52:00,41.5,13.9,29.65,NNW,329,7.6,12.3,32,0.00,,---,0.00,VWS V13.00,2013-04-28 02:52:00,
2013-04-27 18:57:00,40.8,13.3,29.65,NNW,329,7.6,12.3,32,0.00,,---,0.00,VWS V13.00,2013-04-28 02:57:00,
2013-04-27 19:02:00,40.8,13.3,29.65,NW,308,15.4,15.4,32,0.00,,---,0.00,VWS V13.00,2013-04-28 03:02:00,
2013-04-27 19:07:00,40.5,12.9,29.65,NW,308,15.4,15.4,32,0.00,,---,0.00,VWS V13.00,2013-04-28 03:07:00,
2013-04-27 19:12:00,40.6,13.8,29.65,SSW,196,3.6,15.4,33,0.00,,---,0.00,VWS V13.00,2013-04-28 03:12:00,
2013-04-27 19:17:00,40.6,13.1,29.65,ENE,73,0.0,15.4,32,0.00,,---,0.00,VWS V13.00,2013-04-28 03:17:00,
2013-04-27 19:22:00,40.3,12.8,29.65,ENE,73,0.0,0.0,32,0.00,,---,0.00,VWS V13.00,2013-04-28 03:22:00,
2013-04-27 19:27:00,40.1,12.6,29.65,ENE,60,0.0,0.0,32,0.00,,---,0.00,VWS V13.00,2013-04-28 03:27:00,
2013-04-27 19:32:00,40.1,12.6,29.65,NNW,341,0.0,0.0,32,0.00,,---,0.00,VWS V13.00,2013-04-28 03:32:00,
2013-04-27 19:37:00,40.5,13.6,29.65,NNE,16,0.0,0.0,33,0.00,,---,0.00,VWS V13.00,2013-04-28 03:37:00,
2013-04-27 19:42:00,40.5,12.9,29.65,WNW,301,0.0,0.0,32,0.00,,---,0.00,VWS V13.00,2013-04-28 03:42:00,
2013-04-27 19:47:00,40.1,12.6,29.65,WNW,301,0.0,0.0,32,0.00,,---,0.00,VWS V13.00,2013-04-28 03:47:00,
2013-04-27 19:52:00,39.9,12.5,29.65,West,259,0.0,0.0,32,0.00,,---,0.00,VWS V13.00,2013-04-28 03:52:00,
2013-04-27 19:57:00,39.9,12.5,29.65,WNW,291,6.3,6.3,32,0.00,,---,0.00,VWS V13.00,2013-04-28 03:57:00,
2013-04-27 20:01:00,40.1,12.6,29.65,WNW,291,6.3,6.3,32,0.00,,---,0.00,VWS V13.00,2013-04-28 04:01:00,
2013-04-27 20:06:00,39.7,12.3,29.65,East,81,0.0,6.3,32,0.00,,---,0.00,VWS V13.00,2013-04-28 04:06:00,
2013-04-27 20:11:00,39.7,12.3,29.68,NNW,336,0.0,6.3,32,0.00,,---,0.00,VWS V13.00,2013-04-28 04:11:00,
2013-04-27 20:16:00,39.4,12.0,29.68,NNW,336,0.0,6.3,32,0.00,,---,0.00,VWS V13.00,2013-04-28 04:16:00,
2013-04-27 20:21:00,39.4,12.0,29.68,NW,311,0.0,0.0,32,0.00,,---,0.00,VWS V13.00,2013-04-28 04:21:00,
2013-04-27 20:26:00,39.2,11.8,29.68,NNW,341,0.0,0.0,32,0.00,,---,0.00,VWS V13.00,2013-04-28 04:26:00,
2013-04-27 20:31:00,38.8,12.2,29.68,NNW,342,0.0,0.0,33,0.00,,---,0.00,VWS V13.00,2013-04-28 04:31:00,
2013-04-27 20:36:00,38.8,12.2,29.68,North,5,5.8,5.8,33,0.00,,---,0.00,VWS V13.00,2013-04-28 04:36:00,
2013-04-27 20:41:00,38.5,11.9,29.68,North,5,5.8,5.8,33,0.00,,---,0.00,VWS V13.00,2013-04-28 04:41:00,
2013-04-27 20:46:00,38.5,11.9,29.68,North,4,0.0,5.8,33,0.00,,---,0.00,VWS V13.00,2013-04-28 04:46:00,
2013-04-27 20:51:00,38.5,11.9,29.68,SW,223,0.0,5.8,33,0.00,,---,0.00,VWS V13.00,2013-04-28 04:51:00,
2013-04-27 20:56:00,38.5,11.9,29.68,NNE,18,0.0,5.8,33,0.00,,---,0.00,VWS V13.00,2013-04-28 04:56:00,
2013-04-27 21:01:00,38.3,11.7,29.68,NW,315,0.0,0.0,33,0.00,,---,0.00,VWS V13.00,2013-04-28 05:01:00,
2013-04-27 21:06:00,38.1,11.6,29.68,SW,221,0.0,0.0,33,0.00,,---,0.00,VWS V13.00,2013-04-28 05:06:00,
2013-04-27 21:11:00,37.9,11.4,29.68,WNW,299,0.0,0.0,33,0.00,,---,0.00,VWS V13.00,2013-04-28 05:11:00,
2013-04-27 21:16:00,37.9,11.4,29.68,WNW,283,0.0,0.0,33,0.00,,---,0.00,VWS V13.00,2013-04-28 05:16:00,
2013-04-27 21:21:00,37.9,11.4,29.68,NNW,343,0.0,0.0,33,0.00,,---,0.00,VWS V13.00,2013-04-28 05:21:00,
2013-04-27 21:26:00,37.9,11.4,29.68,WNW,302,3.6,3.6,33,0.00,,---,0.00,VWS V13.00,2013-04-28 05:26:00,
2013-04-27 21:31:00,37.6,11.8,29.68,NE,47,0.0,3.6,34,0.00,,---,0.00,VWS V13.00,2013-04-28 05:31:00,
2013-04-27 21:36:00,37.6,11.8,29.68,WSW,241,0.0,3.6,34,0.00,,---,0.00,VWS V13.00,2013-04-28 05:36:00,
2013-04-27 21:41:00,37.4,12.3,29.68,NNE,23,6.3,6.3,35,0.00,,---,0.00,VWS V13.00,2013-04-28 05:41:00,
2013-04-27 21:46:00,37.4,12.3,29.68,NW,310,4.9,6.3,35,0.00,,---,0.00,VWS V13.00,2013-04-28 05:46:00,
2013-04-27 21:51:00,37.4,12.3,29.68,North,0,0.0,10.5,35,0.00,,---,0.00,VWS V13.00,2013-04-28 05:51:00,
2013-04-27 21:56:00,37.4,12.3,29.68,NNE,31,0.0,10.5,35,0.00,,---,0.00,VWS V13.00,2013-04-28 05:56:00,
2013-04-27 22:01:00,37.2,12.1,29.68,NNE,31,0.0,0.0,35,0.00,,---,0.00,VWS V13.00,2013-04-28 06:01:00,
2013-04-27 22:06:00,37.0,12.6,29.68,NNE,19,8.7,8.7,36,0.00,,---,0.00,VWS V13.00,2013-04-28 06:06:00,
2013-04-27 22:11:00,37.0,12.6,29.68,North,357,8.3,8.7,36,0.00,,---,0.00,VWS V13.00,2013-04-28 06:11:00,
2013-04-27 22:16:00,37.0,11.9,29.68,NW,314,7.6,11.9,35,0.00,,---,0.00,VWS V13.00,2013-04-28 06:16:00,
2013-04-27 22:21:00,37.2,12.1,29.68,North,2,8.7,8.7,35,0.00,,---,0.00,VWS V13.00,2013-04-28 06:21:00,
2013-04-27 22:27:00,37.2,12.1,29.68,ENE,73,0.0,11.9,35,0.00,,---,0.00,VWS V13.00,2013-04-28 06:27:00,
2013-04-27 22:32:00,37.2,12.1,29.68,WNW,299,0.0,11.9,35,0.00,,---,0.00,VWS V13.00,2013-04-28 06:32:00,
2013-04-27 22:37:00,37.2,13.4,29.68,NW,314,5.4,11.9,37,0.00,,---,0.00,VWS V13.00,2013-04-28 06:37:00,
2013-04-27 22:42:00,37.2,13.4,29.68,NNW,330,0.0,0.0,37,0.00,,---,0.00,VWS V13.00,2013-04-28 06:42:00,
2013-04-27 22:47:00,37.0,13.2,29.68,NNE,33,0.0,10.5,37,0.00,,---,0.00,VWS V13.00,2013-04-28 06:47:00,
2013-04-27 22:52:00,37.0,13.2,29.71,WSW,255,0.0,10.5,37,0.00,,---,0.00,VWS V13.00,2013-04-28 06:52:00,
2013-04-27 22:57:00,37.0,13.2,29.71,North,357,0.0,10.5,37,0.00,,---,0.00,VWS V13.00,2013-04-28 06:57:00,
2013-04-27 23:02:00,37.0,13.2,29.71,NNW,328,12.3,12.3,37,0.00,,---,0.00,VWS V13.00,2013-04-28 07:02:00,
2013-04-27 23:07:00,37.0,13.2,29.71,WNW,290,0.0,13.6,37,0.00,,---,0.00,VWS V13.00,2013-04-28 07:07:00,
2013-04-27 23:12:00,37.0,13.2,29.71,ESE,103,0.0,13.6,37,0.00,,---,0.00,VWS V13.00,2013-04-28 07:12:00,